Flag for Colombia Weather past 2 weeks in Bogota, Colombia

Now
59 °F

Broken clouds.


Feels Like: 57 °F
Forecast: 49 / 64 °F
Wind: 12 mph from Northwest

Location: Bogota / Eldorado

Current Time: Aug 21, 2014 at 3:25:19 PM

Latest Report: Aug 21, 2014 at 3:00 PM


Visibility: N/A

Pressure: 30.29 "Hg

Humidity: 72%

Dew point: 50 °F

Location of BogotaLocation

Historic Weather in Bogota — Graph

°F

Bogota temperature yesterday

Maximum temperature yesterday: 64 °F (at 11:00 AM)
Minimum temperature yesterday: 45 °F (at 12:00 AM)
Average temperature yesterday: 56 °F

Past Weeks' High & Low Weather Summary

 TemperatureHumidityPressure
High66 °F (Aug 8, 3:00 PM)100% (Aug 7, 4:00 AM)30.42 "Hg (Aug 7, 4:00 AM)
Low45 °F (Aug 20, 12:00 AM)43% (Aug 13, 2:00 PM)30.25 "Hg (Aug 18, 4:00 PM)
Average57 °F71%30.35 "Hg
* Reported Aug 6 2:00 PM — Aug 21 2:00 PM, Bogota, Weather by CustomWeather, © 2014

Note: Actual official high and low records may vary slightly from our data, if they occured in-between our weather recording intervals... More about our weather records

Advertising

Bogota weather history for previous 24 hours

 ConditionsComfort  
Time TempWeatherWind HumidityBarometerVisibility
2:00 PM
Aug 21
64 °FScattered showers. Broken clouds.12 mph56%30.29 "HgN/A
1:00 PM66 °FScattered clouds.9 mph46%30.31 "HgN/A
12:00 PM66 °FScattered clouds.3 mph46%30.34 "HgN/A
11:00 AM63 °FScattered clouds.2 mph49%30.37 "HgN/A
10:00 AM63 °FPartly sunny.2 mph52%30.39 "HgN/A
9:00 AM59 °FScattered clouds.6 mph59%30.38 "HgN/A
8:00 AM55 °FScattered clouds.7 mph77%30.38 "HgN/A
7:00 AM46 °FFog.2 mph93%30.35 "HgN/A
6:00 AM46 °FFog.5 mph93%30.33 "Hg6 mi
5:00 AM48 °FPassing clouds.2 mph94%30.34 "Hg6 mi
4:00 AM48 °FPassing clouds.3 mph100%30.32 "Hg6 mi
3:00 AM50 °FPassing clouds.2 mph94%30.32 "Hg5 mi
2:00 AM50 °FPassing clouds.No wind94%30.34 "Hg5 mi
1:00 AM54 °FPassing clouds.No wind88%30.35 "Hg4 mi
12:00 AM54 °FPassing clouds.2 mph88%30.39 "Hg5 mi
11:00 PM
Aug 20
54 °FPassing clouds.3 mph88%30.40 "Hg5 mi
10:00 PM54 °FPassing clouds.2 mph88%30.41 "HgN/A
9:00 PM55 °FPassing clouds.5 mph82%30.39 "HgN/A
8:00 PM57 °FPassing clouds.6 mph72%30.37 "HgN/A
7:00 PM57 °FPassing clouds.6 mph63%30.33 "HgN/A
6:00 PM59 °FScattered clouds.10 mph63%30.30 "HgN/A
5:00 PM61 °FPartly sunny.13 mph55%30.30 "HgN/A
4:00 PM63 °FPartly sunny.16 mph52%30.30 "HgN/A
3:00 PM63 °FPartly sunny.18 mph52%30.31 "HgN/A
Weather by CustomWeather, © 2014

See weather overviewHow to use our weather pages